Regional Weather Roundup
Issued by NWS

Current Version | Previous Version | Text Only | Print | Product List | Glossary On
Versions: 1 2 3 4 5 6 7 8 9 10 11 12 13 14 15 16 17 18 19 20 21 22 23 24 25 26 27 28 29 30 31 32 33 34 35 36 37 38 39 40 41 42 43 44 45 46 47 48 49 50
000
ASUS43 KDMX 010806
RWRIA

WEATHER ROUNDUP FOR IOWA
NATIONAL WEATHER SERVICE DES MOINES IA
200 AM CST MON MAR 01 2021

NOTE: "FAIR" INDICATES FEW OR NO CLOUDS BELOW 12,000 FEET WITH NO
SIGNIFICANT WEATHER AND/OR OBSTRUCTIONS TO VISIBILITY.

* - THESE STATIONS ARE NOT NWS STATIONS...THUS NOT UNDER NWS
QUALITY CONTROL.  THEY ALSO DO NOT REPORT WEATHER SUCH
AS PRECIPITATION OR FOG.

IAZ001>003-012>014-020>022-031>034-043>046-010900-
   NORTHWEST IOWA

CITY           SKY/WX    TMP DP  RH WIND       PRES   REMARKS
CARROLL *      CLEAR     25  25 100 SW3       30.14R
CHEROKEE *     CLEAR     21  20  98 S5        30.13S WCI  14
DENISON *        N/A     21  21 100 CALM      30.16S
LE MARS *      CLEAR     23  21  93 S3        30.11S
MAURICE *      FAIR      23  23 100 S10       30.09S WCI  12
SHELDON *      CLEAR     23  21  93 S12       30.07F WCI  12
SIOUX CITY     CLEAR     21  18  88 SE7       30.14R WCI  12
SPENCER        CLEAR     24  19  81 SW9       30.09S WCI  14
STORM LAKE *   CLEAR     21  21 100 SW9         N/A  WCI  11
$$

IAZ055>058-069>071-079>083-090>094-010900-
   SOUTHWEST IOWA

CITY           SKY/WX    TMP DP  RH WIND       PRES   REMARKS
ATLANTIC *     CLEAR     23  21  93 S3        30.16F
AUDUBON *      CLEAR     21  19  93 CALM      30.15F
CLARINDA *     CLEAR     21  21 100 CALM      30.22S
COUNCIL BLFS * CLEAR     25  25 100 SW8       30.16S WCI  16
CRESTON *      CLEAR     23  23 100 W7        30.17F WCI  15
HARLAN  *      CLEAR     23  21  93 S7        30.16S WCI  15
LAMONI         CLEAR     23  20  88 W7        30.18R WCI  15
RED OAK *      CLEAR     25  25 100 CALM      30.19F
SHENANDOAH *   CLEAR     25  25 100 S6        30.19F WCI  18
$$

IAZ047>049-059>061-072>074-084-010900-
   CENTRAL IOWA

CITY           SKY/WX    TMP DP  RH WIND       PRES   REMARKS
AMES           CLEAR     24  19  81 W5        30.16S WCI  18
ANKENY *       CLEAR     25  23  93 W8        30.18S WCI  16
BOONE *        CLEAR     25  25 100 SW5       30.14S WCI  19
CHARITON *     CLEAR     25  25 100 W3        30.18R
DES MOINES     CLEAR     24  20  84 W6        30.17F WCI  17
GRINNELL*      CLEAR     24  20  85 W7        30.17S WCI  16
KNOXVILLE *    CLEAR     25  23  93 W8        30.17S WCI  16
NEWTON *       CLEAR     23  23 100 W3        30.16S
PELLA *        CLEAR     25  23  91 CALM      30.18F
PERRY *        FAIR      27  23  86 W8        30.17S WCI  18
$$

IAZ004>006-015-016-023>025-035-036-010900-
   NORTH CENTRAL IOWA

CITY           SKY/WX    TMP DP  RH WIND       PRES   REMARKS
ALGONA *       CLOUDY    21  21 100 S5        30.09S WCI  15
CLARION *      CLEAR     18  18 100 S5        30.13S WCI  11
ESTHERVILLE    CLOUDY    19  16  88 SW6       30.09S WCI  11
FORT DODGE *   CLEAR     18  16  92 S5        30.13F WCI  11
MASON CITY     CLEAR     20  14  77 W8        30.12S WCI  10
FOREST CITY *  FAIR      21  21 100 SW5       30.10S WCI  15
WEBSTER CITY * CLEAR     19  19 100 SW5       30.12F WCI  13
IOWA FALLS *   FAIR      19  15  83 W5        30.15R WCI  12
$$

IAZ007>011-017>019-026>030-037>042-050>054-066-010900-
   NORTHEAST IOWA

CITY           SKY/WX    TMP DP  RH WIND       PRES   REMARKS
CEDAR RAPIDS   CLEAR     19  14  81 NW8       30.13R WCI   9
CHARLES CITY * PTCLDY    19  18  93 W8        30.11S WCI   9
DECORAH *      MOCLDY    18  16  93 W5        30.07S WCI  11
DUBUQUE        CLEAR     20  13  74 NW10      30.08R WCI   9
MONTICELLO *   CLEAR     19  18  93 NW8       30.12R WCI   9
OELWEIN *      CLEAR     18  14  86 W12       30.12R WCI   5
WATERLOO       CLEAR     20  14  77 W6        30.14R WCI  12
$$

IAZ064-065-067-068-078-010900-
   EAST CENTRAL IOWA

CITY           SKY/WX    TMP DP  RH WIND       PRES   REMARKS
DAVENPORT      CLEAR     23  17  78 W16       30.14R WCI  10
IOWA CITY      CLEAR     24  15  68 NW9       30.17R WCI  14
MUSCATINE *    CLEAR     25  19  80 NW12      30.17R WCI  14
QUAD CITIES    CLEAR     26  18  71 NW15G23   30.13R WCI  14
$$

IAZ062-063-075>077-085>089-095>099-010900-
   SOUTHEAST IOWA

CITY           SKY/WX    TMP DP  RH WIND       PRES   REMARKS
BURLINGTON     CLEAR     27  21  78 NW10G18   30.16R WCI  17
FAIRFIELD *    CLEAR     27  27 100 NW8       30.18R WCI  18
FORT MADISON * CLEAR     28  25  86 NW10      30.17R WCI  19
KEOKUK *       CLEAR     28  25  86 NW6       30.17S WCI  22
OSKALOOSA *    FAIR      27  25  91 NW7       30.17F WCI  20
OTTUMWA        CLEAR     26  23  88 NW9       30.17R WCI  17
WASHINGTON *   CLEAR     25  25 100 NW10      30.16R WCI  15
$$

ABBREVIATIONS USED IN REMARKS
   TC - TEMPERATURES IN CELSIUS
  WCI - WIND CHILL INDEX
   HX - HEAT INDEX
  VSB - VISIBILITY
$$




USA.gov is the U.S. government's official web portal to all federal, state and local government web resources and services.